Location: Unspecified
(0.0000°N, 0.0000°E)
Time: 17:57:11
(UTC+00:00)

STARLINK 1029 - Pass Details

Date: 19 January 2020
Orbit: 382 x 384 km, 53.0° (Epoch: 18 January)

Event Time Altitude Azimuth Distance (km) Brightness Sun altitude
Exits shadow 04:03:12 13° 104° (ESE) 1,246 6.3 -29.6°
Drops below altitude 10° 04:03:58 10° 90° (E) 1,392 6.5 -29.4°
Sets 04:06:42 0° 64° (ENE) 2,241 7.3 -28.8°
